Regional Weather Roundup
Issued by NWS Goodland, KS

Home | Current Version | Previous Version | Text Only | Print | Product List | Glossary Off
Versions: 1 2 3 4 5 6 7 8 9 10 11 12 13 14 15 16 17 18 19 20 21 22 23 24 25 26 27 28 29 30 31 32 33 34 35 36 37 38 39 40 41 42 43 44 45 46 47 48 49 50

000
ASUS43 KGLD 282259
RWRGLD

GOODLAND FORECAST AREA HOURLY WEATHER ROUNDUP
NATIONAL WEATHER SERVICE GOODLAND KS
500 PM MDT SAT MAY 28 2016

...OFFICIAL OBSERVATIONS...

CITY           SKY/WX    TMP DP  RH WIND       PRES   REMARKS
GOODLAND KS    SUNNY     75  43  31 W7        29.98S
HILL CITY KS   MOSUNNY   79  48  33 CALM      29.94S
IMPERIAL NEB   SUNNY     75  46  35 W7        29.95S
MCCOOK NEB     MOSUNNY   76  49  38 W12       29.94R
AKRON CO       SUNNY     72  37  28 VRB3      30.01S
BURLINGTON CO  MOSUNNY   74  40  29 VRB7      30.01S
LIMON CO       CLOUDY    62  44  51 S15       30.08R
$$

...UNOFFICIAL OBSERVATIONS...

CITY           SKY/WX    TMP DP  RH WIND       PRES   REMARKS
GOVE KS          N/A     79  32  18 MISG        N/A
LENORA KS        N/A     75  32  20 MISG        N/A
SHARON SPRINGS   N/A     76  51  41 CALM        N/A
KIT CARSON CO    N/A     74  44  34 MISG        N/A
YUMA CO          N/A     75  45  33 CALM        N/A
$$




USA.gov is the U.S. government's official web portal to all federal, state and local government web resources and services.